Regional Weather Roundup
Issued by NWS

Home | Current Version | Previous Version | Text Only | Print | Product List | Glossary On
Versions: 1 2 3 4 5 6 7 8 9 10 11 12 13 14 15 16 17 18 19 20 21 22 23 24 25 26 27 28 29 30 31 32 33 34 35 36 37 38 39 40 41 42 43 44 45 46 47 48 49 50
000
ASUS43 KDTX 251810
RWRMI
MICHIGAN HOURLY REGIONAL WEATHER ROUNDUP
NATIONAL WEATHER SERVICE DETROIT/PONTIAC MI
ISSUED BY NATIONAL WEATHER SERVICE GRAND RAPIDS MI
100 PM EST SAT FEB 25 2017

NOTE: "FAIR" INDICATES FEW OR NO CLOUDS BELOW 12,000 FEET WITH NO
SIGNIFICANT WEATHER AND/OR OBSTRUCTION TO VISIBILITY.

MIZ047>049-052>055-059>063-066>070-074>076-081>083-251900-
SOUTHEAST LOWER MICHIGAN

CITY           SKY/WX    TMP DP  RH WIND       PRES   REMARKS
ADRIAN         FLURRIES  30  20  66 W20G32    29.71R WCI  17
6HR MIN TEMP:  30; 6HR MAX TEMP:  38; 6HR PCP:  0.01;

ALMA           FLURRIES  29  20  69 W17G25    29.64R WCI  17
6HR MIN TEMP:  29; 6HR MAX TEMP:  32;

ANN ARBOR      CLOUDY    32  20  61 SW21G31   29.65R WCI  20
BAD AXE        CLOUDY    32  24  72 W20G28    29.54R WCI  20
6HR MIN TEMP:  32; 6HR MAX TEMP:  36;

DETROIT CITY   CLOUDY    36  24  62 W22G30    29.62R WCI  25
6HR MIN TEMP:  35; 6HR MAX TEMP:  40; 6HR PCP: TRACE;

DETROIT        CLOUDY    34  22  61 W25G33    29.66R WCI  21
6HR MIN TEMP:  34; 6HR MAX TEMP:  40; 6HR PCP: TRACE;

FLINT          CLOUDY    30  20  66 W23G32    29.62R WCI  17
6HR MIN TEMP:  30; 6HR MAX TEMP:  35; 6HR PCP: TRACE;

GROSSE ILE     CLOUDY    35  22  60 W21G30    29.65R WCI  23
6HR MIN TEMP:  35; 6HR MAX TEMP:  41;

HILLSDALE      FLURRIES  27  21  80 W17G25    29.70R WCI  14
HOWELL         CLOUDY    31  21  67 W17G24    29.64R WCI  19
6HR MIN TEMP:  30; 6HR MAX TEMP:  35;


CITY           SKY/WX    TMP DP  RH WIND       PRES   REMARKS
JACKSON        FLURRIES  28  19  69 W18G30    29.68R WCI  15
6HR MIN TEMP:  28; 6HR MAX TEMP:  35; 6HR PCP: TRACE;

LANSING        CLOUDY    28  18  66 W26G37    29.67R HAZE    WCI  13
6HR MIN TEMP:  28; 6HR MAX TEMP:  33; 6HR PCP: TRACE;

MASON          FLURRIES  29  21  71 W14G25    29.67R WCI  19
MONROE         CLOUDY    34  26  71 W24G33    29.67R WCI  21
6HR MIN TEMP:  33; 6HR MAX TEMP:  40;

MT. CLEMENS    PTSUNNY   36  24  61 W15G26    29.59R WCI  26
6HR MIN TEMP:  35; 6HR MAX TEMP:  42; 6HR PCP: TRACE;

PONTIAC        PTSUNNY   31  18  58 W22G38    29.60R WCI  18
6HR MIN TEMP:  31; 6HR MAX TEMP:  36; 6HR PCP:  0.01;

PORT HOPE        N/A     33  24  69 W17G29    29.50R WCI  22
6HR MIN TEMP:  33; 6HR MAX TEMP:  36;

PORT HURON     CLOUDY    37  25  60 W13G20    29.58R WCI  29
TRI CITIES     CLOUDY    31  20  63 W21G33    29.59R WCI  18
6HR MIN TEMP:  31; 6HR MAX TEMP:  33; 6HR PCP: TRACE;

YPSILANTI      CLOUDY    34  21  59 W29       29.65R WCI  20
6HR MIN TEMP:  34; 6HR MAX TEMP:  39; 6HR PCP: TRACE;

$$
MIZ043>046-050>051-056>058-064>065-071>073-077>080-251900-
SOUTHWEST LOWER MICHIGAN

CITY           SKY/WX    TMP DP  RH WIND       PRES   REMARKS
BATTLE CREEK   FLURRIES  27  20  75 W24       29.72R WCI  12
6HR MIN TEMP:  26; 6HR MAX TEMP:  31; 6HR PCP: TRACE;

BENTON HARBOR  LGT SNOW  25  17  72 W18G26    29.81R WCI  11
6HR MIN TEMP:  25; 6HR MAX TEMP:  28; 6HR PCP: TRACE;

BIG RAPIDS     LGT SNOW  25  18  75 W21G26    29.63R WCI  10
6HR MIN TEMP:  25; 6HR MAX TEMP:  29;

COLDWATER      CLOUDY    27  19  71 W21G26    29.73R WCI  14
6HR MIN TEMP:  27; 6HR MAX TEMP:  33;

HOLLAND        LGT SNOW  25  17  72 W17G28    29.76R WCI  12
6HR MIN TEMP:  25; 6HR MAX TEMP:  29; 6HR PCP:  0.02;

GRAND RAPIDS   LGT SNOW  27  19  72 W21G29    29.69R WCI  13
6HR MIN TEMP:  26; 6HR MAX TEMP:  29; 6HR PCP: TRACE;

KALAMAZOO      LGT SNOW  26  18  71 W17G24    29.74R WCI  13
6HR MIN TEMP:  26; 6HR MAX TEMP:  31; 6HR PCP:  0.01;

MARSHALL       FLURRIES  28  20  74 W21G31    29.70R WCI  14
6HR MIN TEMP:  27; 6HR MAX TEMP:  32;

MOUNT PLEASANT CLOUDY    29  20  68 W17G23    29.61R WCI  17
6HR MIN TEMP:  28; 6HR MAX TEMP:  32;

MUSKEGON       LGT SNOW  25  16  68 NW20G31   29.74R WCI  11
6HR MIN TEMP:  25; 6HR MAX TEMP:  28; 6HR PCP:  0.01;

STURGIS        CLOUDY    26  18  73 W15G26    29.76R WCI  13
6HR MIN TEMP:  25; 6HR MAX TEMP:  32;

$$
MIZ016>042-251900-
NORTHERN LOWER MICHIGAN

CITY           SKY/WX    TMP DP  RH WIND       PRES   REMARKS
ALPENA         FLURRIES  29  20  69 W13G29    29.48R WCI  19
6HR MIN TEMP:  29; 6HR MAX TEMP:  32; 6HR PCP:  0.01;

BEAVER ISLAND  CLOUDY    24  19  81 W13G20    29.55R HAZE    WCI  13
6HR MIN TEMP:  23; 6HR MAX TEMP:  24;

BELLAIRE       LGT SNOW  25  20  82 W6G17     29.59R WCI  18
6HR MIN TEMP:  24; 6HR MAX TEMP:  27;

CADILLAC       LGT SNOW  23  17  77 W10       29.57R WCI  13
CHARLEVOIX     LGT SNOW  25  21  84 W23G29    29.58R WCI  10
GAYLORD        LGT SNOW  24  17  74 W15G23    29.50R WCI  11
6HR MIN TEMP:  23; 6HR MAX TEMP:  26; 6HR PCP:  0.01;

HOUGHTON LAKE  LGT SNOW  24  18  77 W16G24    29.55R WCI  11
6HR MIN TEMP:  24; 6HR MAX TEMP:  29; 6HR PCP: TRACE;

MANISTEE       LGT SNOW  23  18  80 W20G30    29.67R WCI   8
OSCODA         CLOUDY    35  18  50 W28G33    29.49R WCI  22
6HR MIN TEMP:  34; 6HR MAX TEMP:  37;

PELLSTON       LGT SNOW  24  18  77 W20G28    29.50S VSB 3/4 WCI  10
6HR MIN TEMP:  24; 6HR MAX TEMP:  25; 6HR PCP: TRACE;

TRAVERSE CITY  LGT SNOW  25  18  74 W20       29.61R WCI  11
6HR MIN TEMP:  25; 6HR MAX TEMP:  28; 6HR PCP: TRACE;

LUDINGTON      LGT SNOW  23  18  81 NW12G26   29.70R WCI  12
6HR MIN TEMP:  23; 6HR MAX TEMP:  26;

$$
MIZ007>008-015-251900-
EASTERN UPPER MICHIGAN

CITY           SKY/WX    TMP DP  RH WIND       PRES   REMARKS
KINROSS        LGT SNOW  21  18  86 W16G22    29.43S FOG     WCI   7
6HR MIN TEMP:  20; 6HR MAX TEMP:  23; 6HR PCP: TRACE;

MACKINAC ISLAN CLOUDY    24  19  81 W16G33    29.46R HAZE    WCI  11
6HR MIN TEMP:  21; 6HR MAX TEMP:  24;

NEWBERRY       SNOW      20  18  89 NW13G26   29.48R VSB 1/2 WCI   8
6HR MIN TEMP:  20; 6HR MAX TEMP:  21;

S. S. MARIE    LGT SNOW  22  15  75 NW16G22   29.43R WCI   8
6HR MIN TEMP:  21; 6HR MAX TEMP:  23; 6HR PCP: TRACE;

$$
MIZ004>006-011>014-085-251900-
CENTRAL UPPER MICHIGAN

CITY           SKY/WX    TMP DP  RH WIND       PRES   REMARKS
MANISTIQUE     LGT SNOW  22  19  88 NW13G28   29.54R WCI  10
6HR MIN TEMP:  21; 6HR MAX TEMP:  22;

ESCANABA       FLURRIES  24  15  68 NW17G28   29.62R WCI  11
6HR MIN TEMP:  19; 6HR MAX TEMP:  24; 6HR PCP: TRACE;

MENOMINEE      FLURRIES  25  16  68 NW9G18    29.69R WCI  15
6HR MIN TEMP:  18; 6HR MAX TEMP:  25; 6HR PCP:  0.02;

SAWYER-GWINN   LGT SNOW  19  12  73 NW20G31   29.58R WCI   4
$$
MIZ001>003-009>011-084-251900-
WESTERN UPPER MICHIGAN

CITY           SKY/WX    TMP DP  RH WIND       PRES   REMARKS
IRON MOUNTAIN  MIX PCPN  22  10  60 NW23G31   29.62R WCI   6
6HR MIN TEMP:  16; 6HR MAX TEMP:  22; 6HR PCP: TRACE;

HOUGHTON       MIX PCPN  19   9  65 NW22G31   29.63R WCI   2
6HR MIN TEMP:  16; 6HR MAX TEMP:  19; 6HR PCP: TRACE;

COPPER HARBOR    N/A     20  12  71 N23G35    29.62S WCI   3
6HR MIN TEMP:  19; 6HR MAX TEMP:  21;

IRONWOOD       LGT SNOW  15   9  76 W20       29.75R WCI  -2
6HR MIN TEMP:  15; 6HR MAX TEMP:  16; 6HR PCP: TRACE;

$$

ABBREVIATIONS USED IN REMARKS
   TC - TEMPERATURE IN CELSIUS
  WCI - WIND CHILL INDEX
   HX - HEAT INDEX
  VSB - VISIBILITY





USA.gov is the U.S. government's official web portal to all federal, state and local government web resources and services.